Simultaneous Nadir Overpasses (SNOs) Predictions

Prediction of SNOs between FY3D and AQUA Satellite Orbit:

Table of predicted SNOs for the next 14.0 days since TLE Epoch: 12/28/2019
Index Date (FY3D) Time (FY3D) Lat,Lon (FY3D) SZA (FY3D ) Date (AQUA) Time (AQUA) Lat,Lon (AQUA) SZA (AQUA ) Distance(km) Time Diff (sec)
1 12/29/2019 21:50:22 67.82, 76.69 128.06 12/29/2019 21:51:05 67.82, 76.72 127.99 1.29 43
2 12/29/2019 22:39:58 -71.49,-110.55 55.52 12/29/2019 22:39:26 -71.49,-110.59 55.47 1.66 32
3 01/01/2020 14:06:45 67.88,-167.33 127.92 01/01/2020 14:07:32 67.88,-167.33 127.86 0.01 47
4 01/01/2020 14:56:22 -71.50, 5.36 55.63 01/01/2020 14:55:54 -71.50, 5.30 55.58 2.44 28
5 01/04/2020 06:23:07 68.05, -51.22 127.62 01/04/2020 06:23:58 68.04, -51.26 127.57 1.65 51
6 01/04/2020 07:13:03 -70.68, 119.86 54.96 01/04/2020 07:12:38 -70.68, 119.90 54.94 1.59 25
7 01/06/2020 22:39:47 67.24, 63.70 128.20 01/06/2020 22:40:41 67.24, 63.72 128.12 1.14 54
8 01/06/2020 23:29:25 -70.84,-123.98 55.33 01/06/2020 23:29:04 -70.84,-123.98 55.30 0.05 21
9 01/09/2020 14:56:06 67.57, 179.99 127.64 01/09/2020 14:57:04 67.56, 179.96 127.58 1.19 58
10 01/09/2020 15:45:46 -71.06, -7.72 55.80 01/09/2020 15:45:29 -71.05, -7.77 55.76 2.05 17




NCC Satellite Simultaneous Nadir Overpasses (SNOs) Prediction Service
